Theta_e
327 328 331 333 335 331 334 337 338 339 338 340 341 342 341 341 340 342 342 343 344 346 347 350 353 352 354 353 352 353 351 352 352
322 326 331 332 336 335 332 336 337 339 338 340 341 342 342 340 339 340 341 343 346 347 348 350 353 354 354 353 351 352 352 351 351
315 319 329 333 335 335 334 334 338 339 340 339 341 343 343 341 339 340 341 343 344 347 349 349 351 353 354 353 353 352 352 352 351
320 324 322 327 334 336 336 334 337 338 339 339 340 342 343 343 340 339 339 341 345 347 349 349 349 351 352 352 351 352 351 351 352
321 327 328 323 328 335 336 334 335 336 338 339 340 341 343 343 343 342 339 339 341 346 348 348 349 348 352 352 352 352 351 350 351
324 326 329 329 328 330 334 334 334 335 338 339 340 341 341 342 343 342 342 340 340 343 345 347 348 349 348 351 352 351 351 352 352
316 317 325 329 329 331 331 335 335 335 336 341 341 341 340 340 340 341 343 344 342 341 343 345 347 348 349 350 352 353 352 351 351
313 315 322 331 331 332 334 334 333 338 337 338 341 341 340 339 340 341 341 342 344 344 343 344 345 348 351 351 352 351 352 353 352
308 315 320 328 328 328 331 335 336 336 338 339 339 341 341 342 341 341 340 340 341 344 344 344 345 345 348 351 352 339 338 349 352
305 309 317 323 325 324 323 328 337 336 337 339 341 339 341 343 343 342 341 340 340 341 343 344 343 344 346 348 351 334 334 339 353
302 304 308 318 323 323 322 325 329 333 339 338 340 342 342 343 344 343 344 343 339 339 341 342 343 343 345 345 347 332 330 335 350
300 302 305 311 321 324 322 322 326 328 328 329 329 329 334 341 345 344 344 343 343 341 340 340 341 343 344 345 345 327 328 333 349
300 302 303 304 311 322 321 320 322 324 323 323 322 324 327 331 333 339 344 345 345 345 342 341 341 341 342 337 344 327 325 330 348
300 301 302 303 306 317 319 319 320 319 319 318 321 323 325 328 331 333 338 347 347 347 346 346 344 343 343 342 339 342 321 322 347
298 299 300 302 302 308 319 318 315 315 315 318 319 321 324 326 327 331 335 340 349 347 346 345 346 345 345 346 345 328 321 319 324
297 299 300 301 302 306 317 317 314 311 314 316 318 319 320 324 326 329 330 331 337 348 348 346 346 346 346 347 349 347 322 317 319
297 300 300 302 302 303 311 316 313 313 313 315 315 315 316 320 323 325 328 331 336 345 350 347 346 346 347 348 349 350 350 337 328
299 301 303 303 302 303 310 313 311 313 312 311 310 311 313 316 319 322 325 329 333 340 352 348 349 349 350 349 348 350 339 339 344
300 301 304 304 303 306 310 309 309 310 311 310 308 308 310 311 313 317 322 327 331 321 317 313 314 316 338 350 329 321 312 311 312
303 305 306 303 304 309 307 306 306 307 308 307 307 306 307 309 310 317 319 324 328 330 331 311 307 306 307 308 329 308 308 307 308
Wind_Speed
11 12 12 13 15 16 18 18 17 16 15 15 13 12 12 9 8 7 6 7 4 5 5 5 4 5 5 5 4 4 3 2 2
4 10 15 16 17 16 17 18 19 19 17 16 14 15 11 10 8 7 9 8 6 5 5 5 5 5 6 5 5 5 4 3 3
8 6 8 12 15 17 17 19 19 18 18 20 18 17 13 11 12 10 9 8 8 7 6 6 5 7 7 6 6 5 5 4 3
11 9 10 11 15 17 18 17 19 19 17 17 16 16 14 12 10 9 7 9 10 10 7 6 7 7 8 8 8 7 6 5 4
15 12 11 10 11 13 15 16 17 19 18 17 17 16 14 15 12 11 10 9 9 9 9 7 8 7 7 8 9 8 8 8 7
13 14 15 13 6 4 12 13 15 16 16 17 15 13 14 12 12 11 13 12 9 8 9 8 7 7 8 8 9 9 9 9 8
15 15 13 11 11 8 7 2 9 13 13 11 10 9 9 11 13 13 13 12 12 12 10 10 9 9 9 9 8 9 9 9 9
18 19 16 14 12 9 8 6 5 3 7 11 12 12 12 13 11 11 10 10 11 11 11 12 10 10 9 8 8 8 9 9 10
16 17 18 15 14 13 12 10 3 1 3 7 10 12 15 13 12 13 12 11 11 11 12 11 10 11 11 11 8 12 15 11 9
15 17 17 16 15 14 12 12 10 2 2 3 6 12 12 13 12 13 12 11 10 11 13 11 12 13 12 12 12 14 16 17 10
15 17 18 14 12 13 14 11 11 10 7 1 0 4 9 11 12 12 10 8 12 13 11 13 13 13 13 13 12 15 16 17 12
14 15 14 15 10 9 10 11 6 8 10 8 8 9 8 5 6 11 11 14 13 11 10 11 12 12 13 14 15 16 18 14 12
18 16 15 15 17 9 6 9 10 6 6 6 9 9 7 6 5 6 13 13 13 11 10 12 9 11 12 15 15 15 19 17 11
13 13 16 17 16 12 8 6 6 3 2 6 3 4 7 7 6 8 8 11 11 11 12 11 11 12 12 13 14 14 19 20 14
17 17 17 15 14 15 9 7 6 3 3 2 4 6 4 5 5 6 7 9 8 12 12 13 13 13 12 11 13 15 16 20 22
17 17 15 14 12 15 12 6 6 7 2 3 3 2 4 8 6 6 6 7 8 9 11 11 12 11 11 11 9 10 16 20 22
18 14 16 14 14 15 15 6 5 5 7 5 5 3 4 3 7 6 6 4 7 10 11 11 12 11 11 9 9 10 10 10 10
17 19 16 13 14 14 16 8 5 4 5 8 7 6 6 4 4 6 7 6 7 10 13 13 11 12 11 10 11 13 13 13 12
18 21 17 12 14 15 12 6 8 5 4 5 6 6 6 6 7 7 7 6 9 9 15 12 16 13 12 10 13 12 15 15 15
20 20 19 12 13 12 6 7 7 5 4 7 8 8 8 7 6 9 6 8 7 8 9 10 13 17 14 13 11 14 14 16 17
Wind_Direction
186 201 218 215 205 194 192 192 190 194 189 197 196 185 196 191 196 188 178 175 174 186 189 201 178 186 185 192 201 183 191 180 204
235 202 210 203 211 200 194 194 192 193 191 200 199 195 190 190 188 191 191 180 173 179 188 202 182 183 192 194 190 191 181 196 203
327 301 237 218 204 197 195 194 195 194 196 196 197 200 188 195 193 196 195 182 182 184 191 196 181 185 193 193 199 186 186 205 200
330 304 276 240 217 208 199 191 190 193 196 197 196 199 202 192 190 189 185 198 195 191 184 184 195 192 187 195 198 193 189 209 208
334 323 322 253 223 208 199 197 193 193 192 195 200 198 197 200 192 181 189 205 205 190 193 182 188 187 195 197 199 194 196 202 204
3 359 9 16 20 227 213 194 195 196 197 197 198 195 195 201 201 194 201 201 200 200 193 197 191 183 196 203 200 195 205 205 204
345 3 13 15 21 18 15 22 188 193 193 176 173 170 193 197 202 202 209 210 196 198 200 196 199 199 199 201 201 198 203 206 208
1 359 5 19 17 13 9 10 25 145 164 171 174 177 183 199 205 205 203 204 208 207 202 205 204 201 204 199 200 201 197 203 212
3 1 0 6 10 15 10 10 315 153 160 169 177 193 205 206 199 205 203 201 203 202 206 212 200 207 208 203 209 197 191 191 210
359 354 3 3 2 356 4 3 10 338 210 233 203 200 206 205 203 208 211 207 204 204 212 203 208 213 211 213 215 201 198 196 207
358 349 348 354 358 346 343 351 19 19 20 228 272 273 217 209 205 214 211 205 211 215 208 208 207 212 213 215 215 201 206 201 211
345 332 333 334 335 332 330 326 8 37 31 32 40 27 20 9 216 215 210 215 219 218 212 216 211 211 211 216 225 202 204 194 215
328 327 323 324 323 316 316 322 321 64 59 31 23 2 352 336 332 299 223 222 221 216 215 223 219 218 214 215 223 203 205 197 216
309 309 311 315 315 305 297 302 305 342 71 50 21 4 327 330 336 312 297 240 219 216 220 221 219 222 222 220 216 214 201 197 213
305 310 313 310 307 301 292 300 304 312 4 349 334 334 317 317 327 321 300 285 236 211 215 218 220 221 225 224 220 215 201 199 210
298 300 295 294 290 292 286 262 279 289 292 281 262 268 305 308 312 285 284 287 274 238 214 218 220 220 219 224 217 220 207 198 208
293 291 289 291 289 286 280 248 258 264 297 305 296 282 265 255 271 274 268 287 283 250 227 218 217 216 220 214 211 214 211 205 209
291 288 283 275 275 276 276 286 286 287 314 327 332 325 325 292 268 278 308 284 255 292 237 218 211 219 215 203 213 217 204 195 200
284 283 282 263 260 269 266 288 298 309 329 304 307 326 333 322 318 321 293 312 303 280 261 242 226 224 207 210 220 191 196 205 208
279 275 272 256 249 262 275 295 304 313 326 317 338 330 325 318 307 283 300 297 287 309 299 249 231 237 235 216 209 198 204 207 209